TimeCST,TemperatureF,Dew PointF,Humidity,Sea Level PressureIn,VisibilityMPH,Wind Direction,Wind SpeedMPH,Gust SpeedMPH,PrecipitationIn,Events,Conditions,WindDirDegrees,DateUTC
12:52 AM,27.0,23.0,85,29.88,10.0,SE,10.4,-,N/A,,Clear,130,2013-01-10 06:52:00
1:52 AM,30.0,24.1,79,29.84,10.0,SSE,11.5,-,N/A,,Clear,150,2013-01-10 07:52:00
2:52 AM,26.1,21.9,84,29.81,10.0,SE,6.9,-,N/A,,Clear,130,2013-01-10 08:52:00
3:52 AM,28.0,23.0,81,29.79,10.0,South,8.1,-,N/A,,Clear,170,2013-01-10 09:52:00
4:52 AM,28.9,25.0,85,29.77,10.0,SSW,8.1,-,N/A,,Clear,200,2013-01-10 10:52:00
5:52 AM,37.9,27.0,65,29.75,10.0,South,13.8,-,N/A,,Clear,180,2013-01-10 11:52:00
6:52 AM,36.0,27.0,70,29.73,10.0,South,12.7,-,N/A,,Clear,190,2013-01-10 12:52:00
7:52 AM,32.0,24.8,75,29.67,10.0,SE,8.1,-,N/A,,Clear,140,2013-01-10 13:52:00
8:52 AM,34.0,26.1,73,29.72,10.0,SSE,16.1,-,N/A,,Clear,160,2013-01-10 14:52:00
9:52 AM,35.1,27.0,72,29.70,10.0,SSE,13.8,-,N/A,,Clear,160,2013-01-10 15:52:00
10:52 AM,37.0,28.0,70,29.70,10.0,SSE,12.7,-,N/A,,Clear,160,2013-01-10 16:52:00
11:52 AM,37.0,28.0,70,29.65,10.0,ESE,8.1,-,N/A,,Clear,120,2013-01-10 17:52:00
12:52 PM,37.4,26.6,65,29.56,10.0,SE,12.7,-,N/A,,Clear,130,2013-01-10 18:52:00
1:52 PM,37.9,28.0,68,29.56,10.0,SSE,16.1,-,N/A,,Clear,160,2013-01-10 19:52:00
2:52 PM,37.9,28.9,70,29.57,10.0,SSE,10.4,-,N/A,,Clear,150,2013-01-10 20:52:00
3:52 PM,37.9,30.0,73,29.56,10.0,SSE,11.5,-,N/A,,Clear,150,2013-01-10 21:52:00
4:52 PM,37.9,30.9,76,29.55,10.0,SSE,13.8,-,N/A,,Clear,160,2013-01-10 22:52:00
5:52 PM,37.9,30.0,73,29.52,10.0,South,13.8,-,N/A,,Clear,170,2013-01-10 23:52:00
6:52 PM,37.0,30.0,76,29.51,10.0,SE,8.1,-,N/A,,Clear,140,2013-01-11 00:52:00
7:52 PM,36.0,30.0,79,29.49,10.0,SE,9.2,-,N/A,,Clear,140,2013-01-11 01:52:00
8:52 PM,35.1,30.0,82,29.49,10.0,SSE,10.4,-,N/A,,Clear,150,2013-01-11 02:52:00
9:52 PM,35.1,30.9,85,29.49,10.0,SE,4.6,-,N/A,,Clear,140,2013-01-11 03:52:00
10:52 PM,35.1,30.9,85,29.48,10.0,South,3.5,-,N/A,,Clear,190,2013-01-11 04:52:00
11:52 PM,32.0,28.9,88,29.49,10.0,NW,6.9,-,N/A,,Clear,310,2013-01-11 05:52:00